User: anonymous
Location: Brno
(49.2000°N, 16.6330°E)
Time: 14:58:38
(UTC+02:00)
Language:

CARTOSAT-1 - Orbit

View from above orbital plane
View from above orbital plane
View from above satellite
View from above satellite

Ground track
Ground track

The orbit data is extracted from the following two-line orbital elements,

1 28649U 05017A   14107.22240766  .00001888  00000-0  23608-3 0  1151
2 28649 097.8384 182.3260 0001936 116.4172 243.7383 14.83475234484459
Epoch (UTC): 17 April 2014 05:20:16
Eccentricity: 0.0001936
inclination: 97.8384°
perigee height: 617 km
apogee height: 620 km
right ascension of ascending node: 182.3260°
argument of perigee: 116.4172°
revolutions per day: 14.83475234
mean anomaly at epoch: 243.7383°
orbit number at epoch: 48445

The dashed part of the orbit path shows where the satellite is in the earth's shadow,  

DLR